Temperature
13 13 13 12 12 12 12 12 12 11 11 11 11 11 11 11 11 11 12 12 12 13 13 13 14 14 14 14 14 13 13 13 13 13 13 13 13 13 13 13 13 14 14
12 12 12 12 12 12 12 12 11 11 11 11 10 10 10 10 10 10 11 11 11 12 12 13 13 13 14 14 14 13 13 13 13 13 13 13 13 13 13 12 12 12 13
11 11 11 11 11 11 11 11 11 11 11 10 10 10 10 10 10 10 10 10 11 11 11 12 12 13 13 13 13 13 13 13 13 12 13 13 12 12 12 12 12 12 12
10 10 10 10 10 11 11 11 11 11 11 10 10 10 10 10 9 9 9 9 10 10 11 11 11 12 12 13 13 13 13 13 13 12 12 12 12 12 12 12 12 12 12
9 9 9 9 9 9 10 10 10 10 10 10 10 10 10 9 9 9 9 9 9 9 10 10 11 11 12 12 13 13 13 13 13 12 12 12 12 12 12 12 12 11 11
7 7 7 7 8 8 8 9 9 9 9 10 10 10 9 9 9 9 9 9 9 9 9 9 10 10 11 12 12 12 13 13 13 13 12 12 12 12 12 12 12 11 10
6 6 6 6 6 6 7 7 8 8 8 9 9 9 9 9 9 9 9 9 9 8 9 9 9 10 11 11 12 12 12 13 13 13 13 13 13 12 12 12 11 11 11
5 5 5 5 5 5 6 6 6 7 7 7 8 8 9 9 9 9 9 9 8 8 8 8 9 9 10 11 11 12 12 12 13 12 12 13 13 13 13 12 12 11 11
5 5 5 5 5 5 5 5 6 6 6 6 7 7 8 8 8 9 9 8 8 8 8 8 8 9 9 10 10 11 11 12 12 12 12 12 12 12 12 11 11 11 10
5 5 5 5 4 4 4 5 5 5 5 6 6 6 7 7 8 8 8 8 8 8 8 8 8 8 9 9 10 11 11 12 12 12 12 12 12 12 11 12 12 11 10
5 5 5 5 4 4 4 4 5 5 5 5 5 6 6 7 7 8 8 8 8 8 8 8 8 8 9 9 9 10 11 11 11 11 11 11 11 11 11 11 11 12 11
5 5 5 5 4 4 4 4 4 4 4 5 5 5 6 6 7 7 7 7 7 8 8 8 8 8 8 9 9 10 10 10 11 11 11 11 11 11 11 11 11 11 11
5 5 5 5 5 4 4 4 4 4 4 5 5 5 6 6 6 7 7 7 7 7 8 8 8 8 8 9 9 10 10 10 10 11 11 11 11 11 11 10 10 10 10
5 5 5 5 5 5 4 4 4 4 4 5 5 5 5 6 6 6 7 7 7 7 7 7 7 8 8 8 9 9 9 10 10 11 11 11 11 10 10 10 10 10 10
6 6 6 5 5 5 5 4 4 5 5 5 5 5 5 6 6 6 6 7 7 7 7 7 7 7 8 8 8 9 9 9 10 10 11 10 10 10 10 10 10 10 10
6 6 6 6 5 5 5 5 5 5 5 5 5 5 5 6 6 6 6 7 7 7 7 7 7 7 8 8 8 9 9 9 10 10 10 10 10 10 10 10 10 10 10
6 6 6 6 6 5 5 5 5 5 5 5 5 5 5 6 6 6 6 7 7 7 7 7 7 7 7 7 8 8 9 9 9 10 10 10 10 10 10 10 10 10 10
6 6 6 6 6 6 5 5 5 5 5 5 5 5 6 6 6 6 6 7 7 7 7 7 7 7 7 7 8 8 8 9 9 10 10 10 10 10 10 10 10 10 10
7 7 7 6 6 6 6 6 5 5 5 5 5 6 6 6 6 6 6 6 7 7 7 7 7 7 7 7 7 8 8 9 9 9 10 10 10 10 10 10 10 10 10
7 7 7 7 6 6 6 6 6 6 6 6 6 6 6 6 6 6 6 6 6 7 7 7 7 7 7 7 7 8 8 9 9 9 10 10 10 10 10 10 10 10 10
7 7 7 7 7 7 6 6 6 6 6 6 6 6 6 6 6 6 6 6 6 6 6 6 7 7 7 7 8 8 8 9 9 9 10 10 10 10 10 10 10 10 10
7 7 7 7 7 7 7 6 6 6 6 6 6 6 6 6 6 6 6 6 6 6 6 7 7 7 7 7 8 8 9 9 9 10 10 10 10 9 9 9 9 9 9
7 7 7 7 7 7 7 7 6 6 6 6 6 6 6 6 6 6 6 6 6 6 7 7 7 7 7 8 8 9 9 10 10 10 10 10 10 9 9 9 9 9 9
7 7 7 7 7 7 7 7 7 7 7 7 6 6 6 6 6 6 6 6 7 7 7 7 7 8 8 9 9 9 10 10 10 10 10 10 10 10 10 10 10 10 10
7 7 7 7 7 7 7 7 7 7 7 7 7 7 7 7 7 7 7 7 7 8 8 8 8 9 9 9 10 10 10 10 10 10 10 10 10 10 10 10 10 10 10
8 7 7 7 7 7 7 7 7 7 7 7 7 7 8 8 8 8 8 9 9 9 9 9 9 10 10 10 10 10 10 10 10 10 10 10 10 10 10 10 10 10 10
Wind_Speed
12 11 10 10 10 9 9 10 10 8 8 8 7 7 6 6 5 4 4 4 4 5 6 8 9 7 7 6 7 7 7 6 6 3 1 1 2 4 5 7 8 9 10
12 11 12 12 11 11 11 12 11 11 10 10 9 8 8 7 6 6 6 4 4 4 4 6 7 7 8 7 7 8 7 8 7 6 3 2 2 6 6 7 6 8 9
12 12 12 13 13 13 13 13 12 12 11 11 10 10 10 9 8 7 7 6 6 5 5 5 6 7 8 7 8 8 7 7 7 5 4 3 2 5 6 6 8 7 8
12 12 13 14 14 14 13 12 12 12 12 12 12 12 11 10 9 8 8 7 7 6 6 6 6 7 8 9 8 9 8 8 7 6 5 4 4 5 6 6 6 5 6
13 14 14 14 14 13 13 12 12 12 13 12 12 12 11 10 10 10 9 8 8 7 6 5 6 8 10 9 7 8 9 8 8 7 6 5 5 7 7 5 7 7 6
14 15 15 15 15 14 14 13 12 11 11 11 12 12 12 11 13 15 12 9 8 7 7 6 6 8 9 11 13 12 12 10 10 9 8 8 9 8 7 10 9 7 4
15 16 15 15 15 15 15 14 12 11 11 11 12 12 12 13 16 16 15 10 9 8 8 6 5 6 6 7 9 12 13 14 13 11 11 11 11 12 12 12 10 6 5
16 16 16 16 16 15 14 14 12 10 10 10 11 11 11 13 16 16 15 11 9 9 9 8 7 7 6 7 7 8 9 10 12 11 11 11 11 13 14 12 12 9 8
17 17 16 16 16 16 15 14 12 10 10 10 8 10 11 12 15 16 14 7 8 9 9 8 8 7 9 9 8 8 8 7 8 11 11 11 14 16 16 14 13 13 8
17 17 17 16 16 16 15 13 11 10 11 10 10 9 10 11 13 15 13 7 7 7 6 7 8 8 9 10 9 9 9 8 7 8 9 12 15 18 20 17 16 15 11
17 17 16 15 14 14 13 12 11 10 10 10 10 9 9 10 11 14 13 8 8 7 6 6 5 7 9 11 11 9 10 9 9 9 10 11 12 12 12 11 11 15 13
16 16 15 14 13 11 10 10 10 9 9 9 8 7 6 7 10 11 13 13 11 8 7 6 5 6 6 9 9 9 11 11 8 9 10 11 12 12 11 11 9 7 5
16 16 15 14 11 10 9 9 8 7 7 6 6 6 6 5 7 11 12 14 14 9 6 8 7 6 4 5 9 11 11 9 9 10 11 10 10 11 11 10 9 8 8
16 15 13 12 11 9 7 6 6 5 5 5 6 6 5 5 5 5 6 7 10 9 6 6 6 5 4 4 5 8 8 9 10 10 10 9 9 11 10 11 10 10 8
14 13 12 10 9 8 6 5 4 4 4 5 5 5 5 6 7 10 8 7 7 8 7 5 4 3 3 4 5 6 7 8 9 9 10 11 11 11 10 10 10 10 8
12 12 9 9 8 6 6 4 3 2 4 7 6 5 5 6 6 10 12 10 11 12 9 6 6 5 5 6 7 7 7 8 9 10 11 12 12 12 10 9 10 10 10
12 11 9 8 7 6 5 4 4 2 2 1 2 5 5 3 4 6 9 10 11 12 7 7 7 6 6 6 7 7 7 8 9 11 11 12 12 12 12 12 11 10 9
11 11 10 7 6 5 5 4 3 2 1 1 3 2 1 3 4 7 11 10 7 7 6 7 7 7 6 6 7 8 8 9 10 10 11 11 12 12 12 12 11 11 10
10 9 8 7 5 5 4 3 2 2 1 1 2 3 4 5 6 8 9 5 7 7 7 6 6 6 6 6 8 9 9 10 11 11 11 11 11 12 11 11 10 12 10
8 12 10 6 5 5 4 3 2 2 1 1 1 2 2 3 4 5 5 4 5 6 6 7 7 7 6 7 9 10 10 10 11 11 11 11 11 11 12 12 11 11 9
7 9 11 7 5 5 4 3 2 1 1 1 1 1 3 3 3 4 4 4 4 5 5 6 7 7 7 8 10 12 12 11 10 11 11 11 11 10 10 10 11 10 9
7 6 6 5 5 4 4 3 3 2 2 2 1 1 2 1 2 3 3 3 3 3 4 6 6 7 8 9 11 11 12 11 11 11 11 11 11 11 10 10 9 9 9
6 6 6 5 4 5 4 4 4 3 3 3 3 2 1 1 1 1 2 3 3 3 4 5 6 7 7 8 9 11 12 12 12 13 12 11 10 10 10 10 11 11 10
6 6 5 5 5 5 5 5 5 5 5 4 4 3 2 1 1 1 2 3 4 5 5 5 6 9 11 9 8 9 9 10 12 12 15 13 11 10 9 10 10 11 10
6 6 5 4 4 4 4 5 5 5 5 5 4 4 3 3 3 3 3 4 6 6 7 7 6 9 12 12 11 9 12 14 13 12 11 11 12 11 10 10 9 10 9
7 6 5 4 4 4 4 4 4 5 5 5 5 5 5 5 5 5 4 4 5 6 6 6 8 10 11 10 12 13 14 14 14 14 11 10 11 9 10 8 10 10 10
Wind_Direction
275 270 266 262 255 247 241 240 238 238 236 235 238 242 245 245 241 239 254 265 250 240 228 217 217 206 204 203 199 198 202 205 228 240 210 152 123 119 102 94 91 88 91
278 276 272 269 264 257 251 246 238 235 234 232 232 234 240 243 236 231 234 239 243 251 248 232 226 214 209 204 199 202 203 203 212 225 207 175 146 140 122 107 95 90 89
285 281 279 276 270 263 258 252 242 235 234 231 224 227 232 235 235 234 233 229 227 230 241 245 239 222 217 208 203 204 204 203 205 208 200 175 144 141 126 110 103 95 91
292 288 283 279 274 268 263 257 249 239 234 232 227 225 227 228 230 233 232 232 227 225 228 237 242 233 226 215 208 206 199 197 200 202 196 177 157 147 139 133 120 106 97
296 292 288 285 282 278 271 262 253 244 240 232 229 228 226 224 228 226 226 227 225 227 228 234 244 245 238 221 209 203 195 195 195 200 195 181 170 163 156 142 133 117 89
293 292 292 290 287 283 279 272 262 252 243 231 227 226 225 227 224 218 214 219 220 223 232 237 246 251 246 230 217 205 195 193 196 197 196 190 180 166 152 148 143 139 127
292 291 290 289 287 283 282 279 269 261 252 239 230 225 223 225 223 222 219 213 217 221 226 234 248 246 243 237 222 211 207 205 199 197 196 192 179 169 160 158 159 144 130
294 291 290 288 286 282 278 275 270 264 258 249 238 228 225 227 222 223 224 216 217 223 224 226 236 249 241 226 216 209 211 211 208 207 205 194 180 169 165 157 143 116 105
297 294 291 287 284 280 276 271 268 263 259 254 245 231 224 228 221 219 217 207 216 227 229 227 231 243 242 224 211 210 212 215 210 204 196 180 162 157 151 142 142 140 137
301 298 294 288 284 279 274 270 266 258 255 253 245 234 224 225 223 218 208 200 212 224 230 231 232 239 241 221 211 205 209 204 183 177 173 164 161 159 157 159 158 155 147
305 302 298 293 286 279 272 267 263 257 254 248 241 233 224 223 228 221 205 194 204 214 223 227 227 237 242 224 211 210 207 187 177 170 165 162 162 163 163 159 160 161 157
309 307 305 300 293 289 277 270 261 254 249 243 235 232 226 223 224 222 208 201 197 202 214 217 217 224 241 228 212 207 190 177 173 167 164 164 164 164 161 155 149 143 123
314 313 311 307 301 293 284 277 266 250 238 234 227 228 226 219 222 221 211 207 203 202 209 202 203 211 224 226 217 196 182 180 175 171 168 164 161 156 148 138 127 112 96
318 318 316 314 312 306 295 281 265 246 233 226 221 222 222 216 216 211 205 205 203 203 200 192 188 189 199 209 195 190 190 184 176 171 161 149 145 149 151 148 147 142 129
320 320 321 319 316 315 312 301 278 253 233 225 223 215 210 218 219 202 192 192 187 184 170 171 177 182 191 200 192 184 181 175 168 156 152 150 151 152 152 152 150 150 150
324 325 323 323 322 321 321 325 323 283 263 240 230 218 220 226 223 205 201 190 173 162 160 177 186 191 193 196 188 177 174 170 162 155 154 153 154 154 151 152 157 161 158
323 321 320 323 326 329 329 326 325 351 45 56 239 230 229 226 210 188 177 165 163 161 172 183 188 194 195 195 184 172 166 163 156 154 152 151 150 151 153 157 161 161 158
324 324 327 322 325 327 328 326 322 328 349 34 43 54 172 186 174 158 150 145 156 173 187 189 193 193 191 190 178 167 159 156 153 149 147 147 148 150 153 156 160 160 155
324 325 325 324 327 327 327 330 337 355 39 59 63 57 85 115 127 148 156 163 169 182 192 196 197 191 186 182 169 160 157 157 151 146 146 147 149 149 151 154 154 151 150
323 329 337 333 338 344 345 353 8 24 38 63 88 105 122 127 140 159 175 178 179 186 193 193 193 187 180 171 159 153 152 150 147 146 148 149 150 151 153 153 155 159 163
323 328 337 339 344 345 348 355 4 10 19 47 116 140 152 155 161 170 177 187 191 189 186 183 180 174 168 158 152 151 150 150 149 149 149 150 151 150 152 154 158 161 158
326 328 333 338 346 358 2 7 12 17 19 37 59 86 122 131 147 158 175 189 191 188 178 165 159 158 156 151 149 149 151 152 153 153 151 151 151 151 151 153 155 157 158
332 338 346 352 357 3 15 23 30 33 34 41 59 83 111 115 121 145 158 164 166 162 153 144 139 140 142 143 150 155 157 159 157 154 151 151 152 153 154 157 159 161 168
339 347 354 1 12 20 27 30 33 36 37 43 53 63 68 72 90 108 132 144 145 141 139 138 139 146 148 148 154 159 158 153 152 154 152 154 155 156 158 162 167 174 177
351 356 4 11 21 28 34 36 34 36 39 40 42 47 50 55 65 78 97 115 129 137 143 146 148 154 156 155 154 150 144 141 145 150 151 152 156 159 162 165 167 168 170
359 2 6 14 20 30 41 43 36 36 38 38 40 46 47 49 55 63 76 94 112 123 130 138 142 146 149 151 145 140 140 142 144 146 151 153 155 161 163 166 169 172 172
Height
1471 1468 1465 1462 1460 1458 1456 1455 1454 1453 1452 1451 1451 1450 1449 1449 1449 1449 1449 1450 1452 1454 1456 1458 1461 1464 1466 1468 1470 1471 1472 1474 1474 1475 1476 1477 1478 1479 1481 1482 1483 1484 1486
1464 1460 1457 1454 1452 1449 1447 1447 1446 1445 1445 1445 1444 1444 1443 1443 1442 1442 1442 1443 1445 1446 1449 1451 1454 1457 1459 1462 1464 1466 1467 1469 1470 1471 1473 1474 1476 1478 1479 1481 1482 1483 1485
1456 1452 1448 1445 1442 1440 1438 1437 1436 1436 1436 1436 1436 1437 1437 1437 1437 1437 1436 1437 1438 1439 1441 1444 1447 1449 1452 1455 1457 1460 1462 1464 1465 1467 1469 1471 1473 1475 1477 1479 1481 1483 1485
1447 1442 1438 1435 1432 1429 1427 1426 1426 1425 1425 1426 1427 1428 1429 1430 1431 1431 1431 1431 1432 1433 1434 1437 1439 1442 1445 1448 1450 1453 1456 1458 1460 1462 1465 1467 1470 1472 1475 1477 1480 1482 1484
1437 1432 1428 1425 1421 1419 1416 1415 1414 1414 1415 1416 1417 1419 1420 1422 1423 1424 1426 1426 1427 1427 1428 1430 1432 1435 1438 1441 1443 1447 1450 1452 1454 1457 1460 1463 1465 1468 1471 1474 1477 1480 1483
1428 1423 1418 1414 1410 1407 1405 1403 1403 1403 1404 1405 1406 1409 1411 1413 1415 1417 1419 1420 1421 1422 1423 1424 1426 1428 1431 1433 1437 1440 1443 1446 1448 1451 1454 1457 1460 1464 1468 1471 1475 1478 1481
1420 1414 1410 1405 1401 1397 1395 1392 1391 1392 1393 1394 1396 1398 1401 1404 1407 1410 1412 1414 1415 1417 1418 1419 1420 1422 1424 1427 1430 1433 1436 1439 1442 1445 1448 1451 1455 1459 1463 1468 1472 1476 1478
1411 1406 1401 1396 1391 1387 1384 1382 1381 1381 1382 1383 1386 1388 1391 1395 1399 1402 1405 1407 1409 1410 1412 1413 1415 1416 1418 1421 1423 1426 1430 1433 1436 1439 1443 1447 1451 1455 1460 1464 1469 1474 1479
1403 1397 1392 1387 1382 1378 1375 1372 1372 1372 1372 1373 1375 1379 1382 1386 1390 1394 1397 1399 1402 1404 1406 1408 1409 1410 1412 1415 1417 1420 1423 1427 1430 1434 1438 1442 1447 1451 1456 1461 1466 1470 1475
1396 1390 1384 1379 1373 1369 1366 1364 1363 1362 1363 1364 1366 1369 1373 1377 1382 1386 1390 1392 1395 1398 1400 1402 1403 1405 1406 1408 1411 1414 1417 1421 1425 1429 1433 1437 1442 1446 1451 1457 1461 1466 1471
1390 1383 1377 1371 1366 1361 1357 1355 1354 1354 1355 1356 1358 1361 1364 1369 1374 1378 1382 1385 1388 1391 1394 1396 1398 1399 1401 1403 1405 1408 1412 1416 1420 1424 1428 1433 1438 1443 1448 1454 1460 1464 1469
1384 1377 1370 1364 1359 1354 1351 1349 1348 1347 1348 1349 1351 1354 1357 1362 1367 1371 1375 1379 1382 1385 1388 1390 1392 1394 1395 1397 1400 1403 1407 1411 1415 1420 1424 1429 1434 1440 1446 1452 1458 1465 1470
1379 1372 1365 1359 1354 1350 1346 1344 1342 1342 1342 1344 1346 1348 1352 1356 1360 1365 1369 1373 1376 1380 1383 1385 1387 1389 1391 1392 1395 1398 1402 1406 1411 1416 1420 1426 1432 1438 1444 1451 1458 1464 1470
1375 1368 1362 1356 1351 1346 1343 1340 1338 1337 1338 1340 1342 1345 1348 1351 1355 1359 1363 1367 1371 1374 1378 1380 1383 1384 1386 1388 1391 1394 1397 1402 1407 1412 1417 1424 1430 1436 1443 1449 1455 1462 1468
1373 1367 1360 1355 1349 1345 1341 1338 1336 1336 1336 1338 1340 1342 1344 1347 1351 1355 1358 1362 1366 1370 1373 1376 1378 1380 1382 1384 1387 1389 1394 1398 1404 1409 1415 1421 1428 1434 1441 1448 1454 1460 1466
1371 1365 1360 1354 1350 1345 1342 1339 1337 1336 1336 1337 1338 1340 1342 1345 1348 1351 1354 1358 1362 1366 1369 1371 1374 1376 1378 1381 1383 1386 1390 1395 1401 1407 1413 1419 1426 1433 1439 1446 1453 1459 1465
1371 1366 1360 1355 1350 1346 1343 1340 1338 1337 1336 1336 1337 1339 1341 1343 1346 1348 1351 1355 1358 1362 1365 1367 1370 1372 1375 1377 1380 1383 1387 1393 1399 1405 1412 1418 1425 1432 1439 1445 1452 1458 1464
1371 1366 1361 1356 1352 1348 1344 1341 1339 1337 1337 1337 1337 1338 1340 1342 1344 1347 1350 1353 1356 1359 1361 1364 1366 1369 1371 1374 1377 1381 1386 1392 1398 1405 1411 1418 1425 1432 1438 1445 1451 1457 1462
1370 1366 1361 1357 1353 1349 1346 1343 1340 1339 1338 1338 1338 1338 1340 1341 1343 1346 1348 1351 1353 1356 1358 1361 1363 1366 1369 1372 1376 1380 1386 1392 1398 1405 1412 1419 1425 1432 1438 1444 1450 1456 1461
1370 1366 1362 1358 1354 1350 1347 1344 1342 1341 1340 1339 1339 1339 1340 1341 1342 1344 1347 1349 1351 1353 1355 1358 1361 1364 1367 1371 1375 1381 1387 1393 1400 1407 1413 1420 1426 1433 1439 1444 1450 1455 1461
1369 1366 1363 1359 1355 1352 1349 1346 1344 1343 1341 1340 1340 1341 1341 1342 1343 1344 1346 1348 1349 1351 1353 1356 1359 1362 1366 1370 1376 1382 1388 1395 1402 1409 1415 1421 1427 1433 1439 1445 1450 1455 1460
1369 1366 1363 1360 1357 1354 1351 1349 1347 1345 1343 1342 1342 1342 1342 1343 1343 1345 1346 1348 1349 1350 1352 1355 1358 1362 1366 1372 1378 1384 1391 1398 1405 1411 1417 1423 1428 1434 1440 1445 1450 1455 1459
1370 1367 1364 1362 1359 1357 1354 1352 1350 1348 1347 1346 1345 1345 1345 1345 1345 1346 1347 1348 1350 1351 1354 1356 1360 1364 1369 1375 1382 1388 1395 1401 1407 1413 1419 1424 1429 1435 1440 1445 1450 1454 1459
1371 1368 1366 1364 1362 1360 1358 1356 1354 1352 1351 1350 1349 1349 1349 1348 1348 1349 1349 1350 1352 1355 1358 1361 1364 1369 1375 1381 1387 1393 1400 1405 1411 1416 1421 1426 1431 1436 1441 1446 1450 1454 1458
1373 1370 1368 1366 1364 1363 1362 1360 1359 1358 1356 1355 1354 1354 1353 1353 1353 1353 1354 1356 1358 1360 1364 1367 1371 1376 1381 1386 1392 1397 1403 1408 1413 1418 1423 1428 1433 1437 1442 1446 1450 1454 1457
1376 1373 1370 1369 1367 1366 1365 1364 1363 1363 1362 1361 1360 1360 1360 1360 1360 1361 1362 1363 1365 1367 1371 1374 1378 1383 1387 1392 1396 1401 1406 1411 1416 1420 1425 1429 1434 1438 1442 1446 1449 1453 1456